Theta_e
297 297 296 297 297 298 304 310 311 312 315 313 306 307 307 308 309 310 311 312 312 313 311 310 308 306 306 308 309 310 313 316 317 317 316 313 312 311 309 311 310 311 311 312 312
300 297 297 297 296 297 297 296 300 307 310 315 314 307 307 308 308 309 311 311 312 312 311 310 308 307 307 308 308 310 314 317 317 317 315 314 312 313 310 311 310 310 309 309 309
299 296 296 296 297 296 298 297 296 296 301 309 313 312 311 310 310 310 311 311 312 311 309 308 309 307 309 310 309 310 314 317 316 313 312 312 311 311 311 313 312 312 310 308 308
302 301 303 299 297 299 298 297 298 298 300 301 312 312 312 311 313 311 310 310 310 309 307 307 307 308 311 312 311 311 312 313 314 312 309 311 311 311 310 313 313 312 311 310 309
301 301 302 303 303 302 300 298 297 299 306 309 309 312 313 313 311 310 309 309 309 309 307 307 308 309 312 313 312 310 312 312 311 309 309 310 310 311 312 312 311 309 308 310 310
297 299 301 302 302 301 301 300 299 299 303 310 309 311 314 312 313 311 309 308 308 308 307 308 308 309 311 312 313 312 310 312 309 309 308 309 310 311 311 311 311 308 308 308 309
297 297 297 299 301 302 301 299 299 299 302 309 310 312 313 313 312 312 309 308 308 307 308 307 308 308 309 312 310 310 310 310 310 309 311 309 310 312 311 311 311 311 309 308 307
297 295 296 298 299 299 300 300 301 299 299 303 311 313 312 312 312 313 312 310 307 307 306 306 306 307 308 309 309 309 311 313 314 312 311 310 315 315 313 311 311 311 310 308 306
294 293 294 297 298 298 299 296 297 300 299 300 307 312 312 311 312 312 311 311 308 305 305 303 305 306 307 309 311 311 314 314 315 314 312 310 314 316 313 313 310 310 309 308 307
293 292 296 296 297 298 298 297 295 301 302 303 307 310 310 308 310 310 310 309 305 304 303 303 305 307 308 309 316 314 314 314 316 312 311 311 312 315 309 309 310 310 309 308 307
296 296 295 296 296 296 297 298 299 300 304 306 306 308 311 311 308 307 306 306 306 304 306 304 305 309 309 310 310 312 316 316 315 315 312 312 313 313 313 308 309 309 309 308 306
296 296 296 296 297 296 296 299 299 301 300 300 301 302 304 307 305 306 305 306 306 307 308 307 308 309 310 311 310 311 313 315 315 312 309 311 313 313 313 313 309 309 309 308 306
296 295 295 295 297 297 298 298 297 298 300 299 300 301 302 305 307 305 304 306 308 310 310 310 310 308 311 312 311 311 312 314 315 312 308 308 312 313 312 312 312 310 309 308 306
295 295 295 295 296 297 296 297 296 296 300 299 301 301 301 303 306 307 306 306 307 310 311 311 311 311 311 312 310 312 311 312 313 314 315 311 320 317 318 315 313 312 309 308 307
295 294 295 295 295 296 296 296 295 296 300 299 301 305 306 303 304 307 306 305 307 308 307 309 309 310 311 311 310 311 310 311 311 312 313 313 312 316 316 317 314 309 309 306 305
295 295 294 295 295 295 296 295 295 299 299 299 303 306 306 306 306 306 306 305 305 307 306 309 308 309 311 309 308 308 308 308 309 311 312 313 313 317 317 314 314 310 305 303 303
294 294 294 295 295 295 295 294 298 298 299 299 299 301 304 306 307 307 305 303 306 308 308 308 308 306 307 310 305 307 310 313 312 311 313 312 313 315 316 314 312 312 303 301 301
294 294 293 295 295 295 295 294 297 297 297 298 299 300 302 304 306 305 306 307 305 308 310 311 311 307 306 309 309 308 310 316 315 315 313 307 316 315 308 301 299 302 302 300 300
293 294 294 294 295 294 295 296 295 297 297 297 298 300 301 302 303 306 305 307 307 306 310 311 312 307 306 309 309 309 312 311 310 305 313 309 309 309 305 301 299 301 301 300 299
293 294 295 295 293 294 294 296 296 297 297 297 298 300 300 302 303 305 305 305 306 306 307 309 311 308 306 305 305 308 309 310 312 314 315 316 314 317 308 306 300 300 301 299 299
293 295 295 293 293 294 297 297 297 297 296 297 298 298 298 299 301 301 303 303 305 306 304 305 310 309 305 307 309 308 310 311 313 314 318 317 321 308 309 307 303 300 301 299 298
293 294 294 293 295 296 297 297 296 296 296 298 297 299 300 300 299 298 298 302 305 305 307 306 307 306 307 301 301 308 312 311 314 313 312 312 318 299 298 300 301 300 300 298 296
293 293 294 294 295 297 297 297 296 297 297 298 298 299 300 300 301 301 303 304 303 304 306 305 307 306 304 304 303 306 307 310 310 310 313 314 316 298 295 295 299 299 298 296 295
293 294 294 294 294 296 297 297 298 297 298 298 298 298 299 299 300 299 300 300 302 304 304 303 307 308 309 308 307 305 307 307 310 312 314 313 317 305 300 297 297 298 296 295 294
292 294 294 295 295 295 296 297 297 299 298 298 299 299 299 300 300 300 300 303 303 302 303 303 307 305 300 300 302 305 306 307 308 309 311 312 310 309 305 300 297 297 295 294 294
293 294 294 294 294 296 297 298 297 297 298 298 298 298 299 299 300 300 299 302 303 302 304 303 307 301 302 299 300 303 304 307 306 307 308 300 303 301 294 295 295 296 295 294 293
292 292 293 294 295 296 296 298 298 298 297 298 298 299 299 300 299 298 300 300 300 304 303 304 304 304 307 299 301 305 302 304 305 305 307 309 308 300 299 297 297 296 294 294 294
Wind_Speed
19 20 21 22 22 21 21 21 21 23 21 22 22 21 18 19 20 21 26 22 19 14 16 12 13 11 12 13 10 7 7 12 19 15 10 6 8 8 3 8 6 8 4 4 12
21 21 21 22 22 23 22 24 24 23 23 23 23 22 21 19 22 28 29 24 24 19 19 19 16 14 12 13 10 12 11 17 17 12 8 8 11 9 8 12 13 12 9 10 11
22 21 22 23 23 22 25 25 24 24 24 22 23 23 19 16 18 16 17 19 26 23 17 17 12 16 19 14 14 10 17 17 13 13 13 12 11 10 10 13 15 18 16 16 15
24 24 24 22 22 23 24 25 26 23 21 23 21 19 18 13 8 5 5 7 11 21 21 15 16 18 12 17 22 13 21 22 13 15 10 14 12 11 19 20 6 12 9 18 18
23 22 22 26 26 25 26 28 27 24 19 19 19 20 19 14 25 23 18 18 12 11 21 19 20 23 18 13 21 20 19 14 22 13 18 14 17 18 20 20 13 10 14 17 17
21 22 22 23 26 27 31 29 28 26 22 19 18 21 26 18 19 22 22 18 18 18 20 22 16 24 16 21 18 9 23 19 15 21 15 16 20 17 21 23 24 18 19 18 17
25 22 23 25 26 28 30 32 33 28 24 22 21 22 33 37 18 20 14 16 18 19 20 22 24 12 9 16 22 16 14 12 17 19 16 16 21 25 32 15 19 26 23 21 19
27 28 27 27 29 30 31 33 34 32 28 23 22 24 34 27 27 28 23 25 20 19 18 14 17 19 20 6 3 11 16 19 16 21 10 14 23 21 33 27 25 23 23 21 19
29 31 31 30 30 32 34 37 35 34 30 23 24 24 18 14 29 36 36 29 22 19 18 11 13 17 13 13 12 15 14 19 20 11 14 18 18 17 11 20 23 24 23 22 19
31 31 32 33 34 33 36 37 37 23 20 18 21 14 19 13 18 21 25 26 16 14 9 12 12 11 15 15 17 15 17 20 17 11 17 16 23 10 9 15 21 23 25 25 23
31 31 31 32 35 35 34 34 20 15 9 14 15 17 20 9 17 15 15 21 20 17 14 17 9 20 28 25 21 21 20 21 19 15 14 20 22 21 19 15 18 22 25 24 24
31 31 32 32 32 34 27 15 21 19 14 28 31 38 35 26 7 16 17 20 19 19 21 7 21 30 20 20 22 23 22 26 18 4 7 15 23 20 21 21 27 26 26 27 23
31 31 32 31 31 23 14 22 23 23 8 26 35 35 46 27 20 15 25 26 19 23 21 24 26 21 22 20 22 24 24 22 21 6 11 12 23 22 24 27 30 33 32 29 29
32 31 33 31 23 16 26 16 18 21 7 17 14 15 33 36 21 32 32 17 7 14 26 18 30 21 24 27 25 23 24 21 17 10 13 8 13 18 19 26 25 28 30 31 30
34 32 31 26 30 24 22 22 21 16 9 8 15 5 3 32 21 21 34 32 11 12 6 14 19 23 18 29 26 20 13 13 17 15 12 16 6 19 16 22 21 19 29 27 26
35 34 32 30 26 26 23 17 16 7 11 5 3 1 5 17 15 9 23 25 10 12 8 16 8 16 21 19 19 2 2 2 1 4 9 19 12 27 19 13 17 17 24 27 27
36 35 34 30 30 24 20 11 8 8 10 8 18 14 6 6 7 9 9 11 12 8 13 9 6 2 5 10 5 11 10 5 5 5 7 11 13 22 8 6 9 12 23 26 26
39 39 39 29 25 19 16 6 18 11 12 17 21 18 13 5 7 4 8 18 20 20 13 15 10 13 11 11 10 25 20 8 9 7 7 5 11 11 1 3 2 4 24 26 26
41 45 33 27 20 15 11 12 11 13 16 15 16 19 17 16 7 6 7 5 8 22 14 10 12 11 20 12 17 7 13 6 3 1 1 6 7 16 9 6 6 5 22 25 25
47 33 28 13 9 16 7 23 13 16 19 15 17 7 7 7 6 6 6 5 5 10 23 9 14 14 9 5 2 6 12 5 5 6 6 8 7 12 8 10 10 12 19 24 24
32 10 12 12 8 9 8 12 11 18 18 6 14 20 20 20 9 6 5 7 8 5 11 3 5 5 9 10 17 6 6 6 2 4 4 3 5 1 1 8 14 13 21 25 23
13 6 12 14 6 6 7 3 4 7 12 11 13 16 15 12 14 12 15 16 7 4 4 6 3 3 8 4 4 14 7 14 7 7 5 3 7 1 2 3 10 14 22 21 21
10 17 12 9 5 8 11 7 6 7 10 5 5 5 4 9 5 7 11 6 13 6 4 4 4 5 0 1 0 6 7 12 2 2 11 8 5 1 1 2 4 16 20 21 24
6 5 8 10 13 13 15 12 8 10 12 10 11 12 10 8 10 9 14 8 4 9 13 4 4 5 6 1 3 8 14 13 10 6 8 10 3 2 3 6 7 14 20 24 24
3 5 7 6 9 14 16 12 17 7 7 4 4 8 11 5 4 9 13 11 4 6 5 4 4 4 1 0 4 2 11 16 16 19 10 12 13 1 4 5 9 12 17 21 20
5 7 8 17 18 14 15 5 13 12 4 6 10 11 8 8 10 15 17 12 10 5 4 3 2 3 3 2 4 4 9 15 20 19 18 2 4 2 4 6 11 15 16 18 20
13 17 11 12 12 8 8 6 7 6 8 13 9 9 9 10 9 17 17 13 8 5 6 3 4 4 2 1 2 6 11 13 12 13 16 15 7 4 5 5 7 13 19 18 19
Wind_Direction
340 336 333 323 313 304 298 298 302 304 301 304 302 295 291 291 285 278 268 265 268 257 240 223 216 209 205 217 217 212 238 237 243 249 248 159 214 201 207 232 214 205 254 145 184
341 335 332 331 325 320 310 300 295 294 296 293 298 297 291 292 291 276 269 270 260 248 227 222 202 199 207 224 213 211 233 237 250 261 244 220 229 212 214 206 219 208 209 195 189
348 341 335 330 327 322 322 317 305 294 290 288 291 296 294 302 302 276 275 250 243 233 223 216 213 204 228 224 219 217 239 241 246 248 249 238 224 209 222 234 224 218 205 205 204
352 352 346 336 328 327 318 313 313 303 292 286 283 291 289 301 264 287 276 262 238 213 210 202 210 201 228 222 229 253 243 255 257 228 226 223 232 222 230 232 243 228 217 197 204
348 351 348 339 341 335 330 323 313 308 293 289 273 271 273 252 251 277 269 281 278 223 214 207 210 213 228 235 248 234 254 246 237 229 228 242 237 236 244 241 231 212 205 199 209
348 341 340 336 332 330 328 324 322 313 294 282 262 263 249 249 257 256 272 265 255 226 214 211 217 223 254 249 236 220 248 244 241 233 232 229 242 239 247 242 233 223 221 216 216
349 343 332 325 325 324 323 319 316 308 297 279 260 254 242 245 259 266 268 263 245 232 225 221 219 216 225 255 241 244 254 240 238 234 233 237 254 233 241 228 230 229 227 223 224
347 346 339 334 326 320 314 314 311 309 294 280 265 252 249 259 262 248 260 250 246 236 228 236 221 230 240 260 216 233 237 250 234 216 217 192 254 226 236 229 228 230 225 219 217
342 340 337 335 328 323 319 312 310 306 295 278 269 244 254 250 238 254 254 239 240 230 223 227 206 221 198 222 233 220 242 229 241 213 190 208 261 251 202 206 218 221 219 216 214
335 334 332 331 328 326 320 320 316 310 287 273 251 260 235 223 238 236 233 219 207 191 197 200 203 216 218 208 220 219 221 242 238 181 209 216 244 235 206 221 224 221 222 221 219
334 334 330 325 325 323 321 325 334 312 294 256 278 246 276 224 235 234 205 195 203 198 198 194 208 217 221 218 230 241 243 239 245 244 211 234 244 244 231 219 227 219 216 216 217
333 335 331 324 321 319 319 311 310 302 282 273 268 271 262 262 271 227 192 185 194 209 209 169 221 228 234 238 232 240 248 253 259 196 223 259 255 250 248 231 224 224 219 218 213
330 332 330 323 315 322 314 313 314 310 268 278 259 254 253 246 231 223 194 204 205 220 207 205 224 220 234 231 237 230 232 239 248 189 242 278 274 253 245 242 237 227 226 221 216
329 331 330 329 321 309 310 308 313 322 273 270 240 252 232 226 244 219 211 213 226 225 221 226 245 237 220 224 219 232 227 237 237 244 245 182 276 258 246 229 227 228 221 224 216
326 325 324 323 305 300 301 300 310 313 266 269 223 240 242 208 211 212 209 209 200 197 161 209 234 221 217 223 210 235 233 238 234 234 246 239 257 260 238 242 221 223 221 218 206
321 319 318 314 302 295 289 290 305 234 249 275 289 246 269 207 235 247 183 200 221 224 204 246 273 219 208 223 220 139 93 79 159 206 229 223 208 268 243 236 228 214 210 202 197
319 316 308 306 290 295 285 295 253 234 329 260 264 260 257 274 243 200 183 178 184 192 206 195 208 204 216 194 135 160 155 202 204 205 230 195 205 237 261 240 259 217 185 186 181
317 312 303 297 296 284 266 233 256 258 255 279 299 293 274 295 255 221 212 204 216 225 240 218 211 167 187 193 180 191 194 208 217 203 218 175 207 240 4 133 113 185 176 172 177
320 313 296 296 287 271 223 245 245 254 256 278 297 283 278 261 211 272 226 261 227 214 223 228 235 182 177 187 169 163 211 222 133 210 191 191 260 284 189 187 186 171 170 177 176
323 310 297 299 285 239 246 231 244 256 278 292 277 269 277 322 287 220 207 179 232 222 231 245 254 197 166 141 295 201 161 173 213 185 224 210 243 238 185 204 187 182 182 177 171
338 318 299 294 276 227 246 264 258 265 268 273 263 264 268 283 293 340 306 298 223 202 223 276 253 121 143 204 177 172 169 203 209 223 216 239 233 342 295 200 185 181 176 172 167
334 302 297 299 286 242 255 213 194 253 262 246 256 261 271 284 293 289 256 238 187 187 211 202 329 174 229 357 326 234 200 192 205 196 244 340 255 37 11 358 164 167 165 162 163
298 297 281 277 281 287 292 246 237 237 244 252 277 271 235 270 278 303 297 309 279 224 239 157 204 166 57 295 296 217 199 215 196 80 202 201 250 99 177 154 149 157 153 153 164
304 299 270 219 259 269 284 288 264 232 260 250 262 282 285 258 249 262 276 302 305 247 254 172 229 253 232 320 142 205 203 205 205 205 193 217 215 160 190 165 161 152 154 162 174
265 269 288 288 292 303 297 282 281 280 219 235 251 248 270 275 276 254 270 297 228 246 225 229 248 210 106 25 309 289 210 198 212 220 209 242 229 117 128 182 172 158 155 163 174
262 292 285 286 286 286 291 284 296 298 224 264 235 274 255 267 274 295 292 292 280 191 221 200 219 156 215 177 235 241 231 206 212 228 238 98 282 70 87 113 154 177 175 179 185
281 293 274 287 294 289 294 298 300 326 277 256 293 300 282 274 283 290 271 276 266 295 212 216 186 170 169 168 203 259 235 201 219 231 231 230 224 158 177 146 186 191 187 191 189